RUBIN 9.1/RUBIN 9.2/PSLV

Satellite information

Favourite Embed

Satellite Type and Status

PAYLOADIN ORBIT

Key statistics

Satellite RUBIN 9.1/RUBIN 9.2/PSLV at a glance.

Uptime

5821

Days in orbit

Revolutions

≈ 14.4

Per day

Orbit

SSO

Sun Synchronous Orbit

Inclination

98.3

Latest

Satellite identification and parameters

Extended collection of information and parameters for RUBIN 9.1/RUBIN 9.2/PSLV.

Object identification

Identified? True

Debris? False

Object name: RUBIN 9.1/RUBIN 9.2/PSLV

International designator: 2009-051F

Object number (NORAD): 35936

Object ID (CCSDS): 35936

Country: GERMANY (GER)

Current information (Y/N): Y

RCS size: LARGE

Orbital parameters

Period: 99.769 minutes

Inclination: 98.2902 deg

SMA: 7125.641 km

Apoapsis: 785.149 km

Periapsis: 709.862 km

RAAN: 168.2297 deg

Eccentricy: 0.00528285

Argument of periapsis: 218.7658 deg

Mean anomaly: 140.9737 deg

Mean motion: 14.43334155 rev/day

Mean motion (dot): 0.00000345 rev/day2

B* drag term: 0.00011345054 1/REarth

Two-line elements (TLE)

Creation date: Aug. 31, 2025, 2:26 a.m.

Reference frame: TEME

Reference center: EARTH

Epoch: Aug. 30, 2025, 7:07 p.m. UTC

TLE line 0: 0 RUBIN 9.1/RUBIN 9.2/PSLV

TLE line 1: 1 35936U 09051F 25242.79701732 .00000345 00000-0 11345-3 0 9991

TLE line 2: 2 35936 98.2902 168.2297 0052829 218.7658 140.9737 14.43334155838649

Live tracking on map

Real-time ground track for satellite RUBIN 9.1/RUBIN 9.2/PSLV.

In-orbit conjunctions

A list of the most updated potential collisions computed for object RUBIN 9.1/RUBIN 9.2/PSLV.

Target Orbit TCA Probability of collision Miss distance Type
CZ-6A DEB LEO 2025-08-05 22:09:32 0.001007853 131.0 (m) DEBRIS
COSMOS 2251 DEB LEO 2025-05-17 04:39:01 0.001227162 106.0 (m) DEBRIS
NOAA 16 DEB SSO 2025-05-05 08:47:48 0.0001245738 522.0 (m) DEBRIS
FENGYUN 1C DEB SSO 2024-10-26 05:44:10 0.0001462246 726.0 (m) DEBRIS
NOAA 16 DEB SSO 2024-10-05 20:51:30 0.0002075083 254.0 (m) DEBRIS

Associated space launch

Oceansat-2 is an earth observation and oceanography satellite operated by ISRO.

RUBIN 9.1/RUBIN 9.2/PSLV was lifted into orbit during the mission ‘PSLV | Oceansat-2’, on board a PSLV space rocket.

The launch took place on Sept. 23, 2009, 6:21 a.m. from Satish Dhawan Space Centre First Launch Pad.

For more information about the launch, click the button.

Launch to space PSLV | Oceansat-2
PSLV | Oceansat-2

Agency: N/A

Status: Launch Successful

Launch date: Sept. 23, 2009, 6:21 a.m. UTC

Rocket: PSLV

Launch pad: Satish Dhawan Space Centre First Launch Pad

Location: Satish Dhawan Space Centre, India

...

Latest news about this satellite

There are no fresh news available about this satellite. Check back as we update our databases every day.


Newsletter sign-up

Weekly statistics, charts and insights to help you stay on top of the space industry.